Wetbulb
61.16 59.60 61.12 57.79 49.10 47.74 46.61 46.32 48.71 48.15 48.17 51.12 51.96 51.14 51.18 52.89 50.54 50.77 61.55 73.35 73.19 73.29 75.77 74.38 72.51 73.07 73.22 73.62 73.60 74.13 74.90 75.05 75.00 74.56 74.37 74.52 74.49 74.07 73.94 74.12 74.25 74.85 75.58 75.70 74.85 74.14 74.26 75.33 74.68
58.47 57.81 58.30 55.11 46.29 45.27 47.25 48.74 46.58 48.49 50.01 52.35 52.38 52.62 51.89 51.42 55.49 59.55 64.24 71.62 73.50 73.56 75.35 75.30 72.30 72.70 73.08 73.06 73.24 73.86 75.02 75.13 74.99 74.70 74.54 74.58 74.49 74.19 74.07 73.98 73.96 74.78 75.65 75.63 74.39 74.38 75.12 74.61 73.41
57.85 58.25 53.82 50.72 47.80 45.58 47.22 47.23 48.64 49.22 51.15 50.97 51.41 53.64 52.89 52.43 57.67 60.64 66.02 71.50 73.33 73.66 74.82 74.77 71.93 72.07 72.71 72.75 72.76 73.19 74.02 74.29 74.44 74.52 74.59 74.58 74.41 74.24 74.25 73.63 74.06 75.07 75.57 75.45 74.43 74.79 74.54 72.69 72.00
55.82 54.90 53.20 46.82 46.67 49.19 47.61 48.55 49.17 49.20 50.87 51.77 52.12 50.79 54.46 58.17 59.08 62.46 68.17 73.12 73.19 73.72 74.48 72.18 71.09 71.77 72.11 72.57 72.56 72.81 72.97 72.98 73.42 73.87 74.39 74.66 74.51 74.39 74.04 73.49 74.16 75.25 75.29 75.07 74.95 74.67 72.79 71.29 71.01
56.53 53.68 47.62 46.48 47.80 50.09 49.77 49.83 49.77 48.83 49.77 50.57 52.22 50.63 52.77 57.29 60.32 64.68 68.20 72.42 72.91 73.78 74.41 74.92 69.82 71.31 71.87 72.37 72.33 72.32 72.14 72.06 72.70 73.35 73.62 74.02 74.14 74.04 73.39 73.01 73.85 74.24 74.56 74.37 74.15 73.38 71.75 70.73 70.51
50.65 52.13 45.52 45.50 48.08 50.04 49.72 51.21 50.73 50.08 50.73 51.20 51.29 51.66 53.99 57.66 58.87 64.05 68.27 71.92 73.52 74.13 74.74 75.08 71.94 71.38 71.33 71.52 71.72 71.14 71.15 71.36 71.88 72.54 72.98 73.70 73.58 73.22 72.94 72.96 72.74 73.45 73.39 72.91 72.74 71.77 70.98 70.48 70.32
49.07 48.25 46.29 46.89 47.10 47.73 48.91 51.52 49.95 50.23 50.30 51.20 53.27 50.72 54.82 56.54 58.88 63.87 68.27 71.82 73.22 74.22 74.40 74.65 74.91 73.49 70.75 70.11 70.13 69.94 70.25 70.60 71.02 71.39 71.96 72.43 71.99 71.98 72.22 72.44 72.66 72.20 71.88 71.62 71.89 70.91 70.44 70.34 69.99
50.10 48.58 45.61 46.22 45.27 46.24 50.15 50.29 51.38 50.81 50.40 54.89 54.57 50.18 51.80 57.23 58.03 61.54 66.89 70.43 72.44 73.36 74.11 73.96 73.99 73.59 74.72 74.48 69.62 69.46 69.76 69.92 70.12 70.72 70.68 70.44 70.86 71.37 71.54 71.50 71.83 71.91 71.36 71.31 70.59 69.76 69.97 69.79 69.44
50.54 44.70 43.66 45.82 45.50 46.95 49.11 48.55 52.18 54.08 52.17 52.98 53.96 53.86 55.70 56.59 57.22 57.96 61.47 66.20 71.40 71.92 72.94 72.79 72.35 72.39 72.73 74.07 73.47 70.73 70.24 69.81 69.65 70.55 69.86 69.76 73.53 74.13 73.63 71.59 70.60 71.19 69.69 69.83 69.22 68.66 69.06 68.75 68.51
47.62 44.68 45.46 48.62 48.35 47.10 48.51 49.10 49.79 49.05 49.37 50.19 52.14 54.58 55.11 55.53 56.07 56.20 56.83 59.57 69.17 70.53 71.68 72.80 72.59 71.67 71.72 70.96 72.31 73.65 74.06 73.56 73.44 73.25 73.58 73.52 73.62 73.75 72.51 71.28 69.43 69.65 68.66 68.81 68.84 68.04 67.77 68.39 72.01
47.09 44.02 48.30 47.21 48.10 48.52 47.98 48.22 50.25 48.55 47.20 50.10 50.14 51.72 53.71 54.32 55.21 55.91 56.10 56.47 61.78 68.97 71.33 71.94 72.52 73.23 73.00 71.31 71.75 71.37 72.11 72.68 73.01 73.90 73.78 73.67 73.43 73.61 73.08 72.87 72.81 72.97 69.66 71.91 70.26 70.59 71.16 70.85 70.92
42.67 45.61 46.30 47.01 47.52 48.08 46.69 48.63 47.30 48.13 48.71 51.05 51.31 52.56 52.95 52.78 53.65 54.37 54.90 55.89 56.67 59.98 66.01 71.09 71.93 72.34 72.60 72.26 71.06 70.91 70.64 71.04 70.64 71.33 72.28 72.51 72.17 72.72 72.60 71.71 72.08 72.09 72.06 71.39 71.60 70.57 70.98 71.02 70.45
43.81 44.78 45.79 46.66 46.47 46.66 47.32 46.15 46.84 47.82 50.84 51.82 51.83 51.51 52.02 52.02 52.56 54.10 54.75 55.45 56.27 56.55 58.63 64.73 71.08 71.71 71.95 71.85 71.25 71.30 70.47 71.14 71.45 70.86 70.81 70.96 70.86 71.17 71.84 71.32 71.69 71.55 71.47 71.49 70.72 70.48 70.15 70.42 69.60
45.58 45.57 45.99 47.36 47.48 47.74 45.89 46.47 47.43 48.28 51.11 50.66 50.87 50.70 51.16 51.26 52.13 53.10 54.07 55.24 56.44 56.99 57.58 59.12 63.99 70.34 71.52 71.08 71.22 70.78 70.81 71.35 70.25 69.60 69.73 70.41 70.45 71.35 69.89 70.04 69.92 70.94 70.61 70.73 70.48 69.80 70.06 69.72 69.55
46.18 42.73 44.92 46.02 46.48 45.72 47.59 44.27 45.23 49.38 50.76 49.11 49.55 50.40 50.78 51.30 51.97 52.29 55.14 57.57 58.74 59.66 60.37 61.03 60.12 63.83 69.61 70.75 70.79 70.55 70.45 70.36 70.48 69.31 69.86 69.68 70.27 70.73 70.08 68.83 68.88 69.74 70.35 70.37 69.93 69.43 69.38 68.61 68.27
42.83 43.89 40.47 45.51 46.40 46.90 46.02 41.81 46.33 48.84 48.16 48.06 48.94 49.98 50.27 50.85 51.62 55.54 57.69 58.24 59.44 60.10 60.40 61.19 61.48 61.34 62.93 68.49 69.62 70.68 70.76 70.60 70.28 70.04 69.21 69.56 69.60 69.78 69.60 68.07 68.54 68.35 68.69 67.73 67.27 66.38 65.53 65.55 67.12
42.39 38.74 40.97 42.55 46.74 45.86 45.13 42.47 45.98 48.24 47.38 47.23 48.80 49.90 49.78 51.11 54.93 56.45 57.34 57.99 58.31 59.00 59.93 60.54 61.71 61.64 61.00 62.79 67.97 69.30 70.86 70.67 70.57 70.00 69.59 70.12 69.41 69.27 69.28 68.14 68.08 68.18 67.25 67.03 65.92 65.25 64.96 64.65 66.13
38.85 39.20 41.07 40.63 43.94 43.81 42.89 42.53 44.97 46.46 47.40 47.46 49.05 49.35 50.19 52.40 53.83 55.66 56.67 57.48 58.03 58.31 58.95 59.31 60.54 61.05 61.93 61.25 63.61 67.69 68.26 69.66 70.26 69.66 69.09 69.67 69.82 68.89 68.69 68.26 67.64 67.31 66.07 66.77 66.05 64.89 64.38 64.40 64.29
40.74 40.38 40.07 42.08 44.07 40.82 41.32 41.24 43.45 46.92 47.89 47.78 48.34 49.31 51.45 53.07 54.79 55.99 56.62 57.07 57.23 57.66 57.21 57.52 58.22 59.44 59.94 60.08 59.18 64.49 65.88 67.65 68.12 69.66 69.69 69.41 69.28 68.80 68.22 67.40 66.51 66.09 65.39 65.51 65.19 64.23 62.71 63.21 64.60
39.83 38.30 38.66 41.47 42.66 40.68 41.10 41.94 45.06 46.63 47.21 47.32 47.70 50.82 51.36 52.45 53.15 54.39 54.95 55.64 55.79 55.71 56.28 56.03 56.30 57.07 57.72 58.88 59.80 61.95 65.69 66.60 67.18 68.76 70.10 69.17 68.39 68.71 67.50 66.36 65.11 65.42 65.19 64.71 65.09 64.68 61.61 62.67 63.79
38.03 37.31 37.89 37.28 41.33 42.93 41.95 40.58 43.16 44.52 46.26 49.11 50.74 51.24 51.76 51.15 51.39 52.39 52.62 53.39 53.97 53.64 53.92 53.70 54.23 55.00 56.06 57.59 58.97 59.79 64.79 66.58 66.51 66.77 67.82 68.63 68.24 67.60 67.06 65.86 64.54 64.69 64.98 64.76 65.30 64.10 62.39 60.52 62.04
35.08 40.07 38.70 38.51 38.36 35.52 41.96 35.10 40.28 42.67 44.77 47.43 49.51 50.25 51.20 50.98 51.27 51.37 51.18 51.21 51.27 51.79 51.90 50.56 51.09 52.46 53.23 55.28 57.11 58.97 59.95 63.41 65.41 66.01 66.60 66.95 66.67 66.22 66.04 64.67 64.27 63.94 64.76 64.58 64.93 64.58 64.14 63.07 60.01
37.44 40.89 39.52 39.99 38.77 38.54 38.68 35.34 39.55 42.53 41.60 45.62 48.50 49.87 49.99 49.99 49.83 49.44 49.38 49.64 50.11 49.84 48.51 46.79 47.30 48.85 49.67 50.92 52.43 57.11 59.51 65.29 66.00 65.96 65.25 65.25 65.31 65.11 65.35 64.43 64.73 64.06 64.47 64.34 64.89 65.30 65.45 64.40 61.94
41.60 39.24 39.97 40.34 38.64 31.77 36.96 36.52 37.75 39.76 42.45 45.35 48.42 48.78 48.45 48.46 48.87 48.76 49.11 49.10 49.10 49.25 47.55 44.71 44.28 44.94 47.09 48.68 50.69 53.97 60.03 62.34 65.17 65.03 63.79 63.76 63.87 64.33 64.76 65.05 65.53 64.74 63.87 63.76 63.35 64.25 65.50 64.60 63.48
38.93 35.59 28.82 27.00 27.66 28.75 37.46 35.93 38.47 42.58 45.10 46.47 47.48 47.19 47.29 47.84 47.35 47.17 46.86 46.60 46.83 46.21 45.72 43.07 42.10 42.44 44.45 46.05 48.80 53.84 60.44 61.48 65.18 64.91 64.43 62.71 62.71 63.35 63.96 65.29 62.67 63.15 63.61 63.97 63.59 63.28 65.17 64.48 63.10
36.56 35.93 29.29 22.72 26.64 31.25 36.54 32.06 38.43 46.17 47.73 47.56 46.86 46.31 46.66 46.50 46.28 46.03 45.43 45.23 45.11 44.25 44.60 42.27 40.11 40.66 42.83 45.48 49.00 53.72 62.94 63.37 66.47 64.97 64.43 63.61 63.76 64.73 66.58 64.20 62.19 62.26 63.20 63.66 63.86 63.39 65.48 65.32 64.56
37.49 34.53 40.32 33.38 34.22 31.75 34.93 37.83 43.21 43.65 43.53 44.17 44.43 44.77 44.72 44.77 44.54 44.20 44.66 44.09 44.00 42.96 42.95 40.06 39.33 40.15 41.97 45.20 47.69 53.35 65.58 65.92 64.87 64.49 64.47 64.05 66.85 66.63 65.03 63.26 62.11 62.06 62.62 63.72 63.19 64.27 64.63 63.24 62.01
40.17 42.00 33.10 34.88 25.55 25.09 32.35 34.13 36.45 38.78 40.43 41.61 42.05 42.89 43.54 43.63 43.33 43.10 43.01 42.55 42.93 42.39 42.76 39.55 39.14 39.42 40.84 43.82 46.79 51.91 63.39 63.98 64.36 64.49 64.48 62.91 65.69 64.73 64.02 62.79 63.02 62.43 62.58 63.25 63.58 63.63 62.74 61.07 61.89
35.74 35.80 36.82 36.41 34.25 27.57 27.11 33.12 40.16 39.56 39.75 39.96 41.53 42.32 42.59 42.38 41.79 41.41 41.73 41.78 41.96 42.14 41.37 37.81 37.77 37.94 39.34 41.90 45.65 49.01 61.30 62.76 63.15 63.11 62.84 61.98 63.06 63.78 62.54 62.32 61.23 60.66 61.58 62.42 61.73 61.08 62.17 61.89 60.15
35.15 34.59 34.47 30.19 29.05 32.41 31.39 31.89 42.16 41.44 40.48 40.22 40.64 41.11 41.07 41.26 40.59 40.71 40.91 40.61 40.49 40.55 39.37 36.89 36.32 36.48 37.88 39.90 43.07 46.43 48.42 54.89 59.95 60.22 60.64 61.69 61.16 62.29 62.47 62.07 60.30 60.35 61.24 61.18 61.48 61.24 60.89 60.56 59.67
MSLP
1012.94 1012.38 1011.96 1010.90 1009.42 1007.03 1004.61 1004.32 1005.04 1005.21 1005.76 1006.32 1006.49 1006.36 1005.70 1005.20 1004.82 1004.08 1004.30 1005.60 1005.93 1005.97 1006.35 1007.61 1008.10 1008.29 1008.55 1008.93 1009.21 1009.51 1009.91 1010.21 1010.48 1010.92 1011.25 1011.65 1012.05 1012.37 1012.61 1012.80 1013.10 1013.26 1013.33 1013.52 1013.82 1014.00 1014.27 1014.43 1014.62
1012.20 1012.03 1011.32 1009.69 1007.94 1005.14 1003.56 1004.18 1005.11 1005.26 1006.43 1006.76 1006.63 1006.30 1005.93 1005.41 1005.83 1005.53 1004.98 1005.96 1006.28 1006.19 1006.55 1007.12 1008.04 1008.17 1008.42 1008.75 1009.06 1009.42 1009.79 1010.02 1010.36 1010.73 1011.14 1011.55 1012.07 1012.43 1012.69 1012.83 1013.12 1013.40 1013.55 1013.70 1013.94 1014.08 1014.16 1014.48 1014.73
1012.25 1011.74 1009.88 1008.41 1006.42 1004.66 1003.77 1005.06 1005.37 1006.24 1006.89 1006.75 1006.35 1006.37 1006.17 1005.98 1006.28 1006.20 1006.28 1006.21 1006.35 1006.36 1006.55 1006.78 1007.75 1007.93 1008.24 1008.61 1008.99 1009.34 1009.60 1009.83 1010.17 1010.52 1010.83 1011.38 1011.89 1012.29 1012.64 1012.82 1013.13 1013.38 1013.60 1013.86 1014.00 1014.21 1014.34 1014.66 1014.89
1011.72 1011.07 1010.17 1008.21 1005.58 1005.07 1005.44 1005.88 1006.32 1006.61 1006.84 1006.97 1006.70 1006.10 1006.25 1006.52 1006.76 1006.67 1006.52 1006.42 1006.34 1006.35 1006.55 1007.39 1008.20 1007.93 1008.16 1008.53 1008.87 1009.25 1009.59 1010.00 1010.32 1010.66 1011.01 1011.49 1011.81 1012.14 1012.54 1012.89 1013.26 1013.41 1013.57 1014.00 1014.11 1014.35 1014.73 1014.89 1015.07
1011.54 1010.11 1008.24 1006.83 1005.29 1005.05 1006.10 1006.67 1006.90 1006.76 1006.85 1006.84 1006.77 1005.84 1006.02 1006.19 1006.62 1006.69 1006.69 1006.65 1006.55 1006.57 1006.84 1007.49 1008.79 1008.89 1008.53 1008.75 1009.05 1009.43 1009.76 1010.15 1010.43 1010.59 1010.83 1011.23 1011.70 1012.10 1012.45 1012.84 1013.18 1013.47 1013.66 1013.96 1014.26 1014.54 1014.88 1015.18 1015.28
1010.56 1009.74 1007.68 1005.74 1004.71 1004.99 1006.30 1006.68 1006.82 1006.75 1006.73 1006.74 1006.77 1006.28 1005.82 1006.35 1006.35 1006.68 1006.81 1006.81 1006.90 1006.81 1007.07 1007.48 1008.74 1009.19 1009.21 1009.18 1009.39 1009.64 1009.91 1010.31 1010.62 1010.77 1010.96 1011.22 1011.56 1011.99 1012.39 1012.74 1013.10 1013.39 1013.68 1013.88 1014.25 1014.62 1014.88 1015.24 1015.35
1010.06 1008.99 1007.09 1005.97 1005.13 1005.28 1006.15 1006.81 1006.66 1006.51 1006.56 1006.43 1006.91 1006.48 1005.80 1005.91 1006.59 1006.70 1006.79 1006.89 1007.01 1007.07 1007.20 1007.41 1008.07 1008.72 1009.36 1009.46 1009.55 1009.87 1010.21 1010.60 1010.80 1011.04 1011.15 1011.35 1011.62 1011.93 1012.33 1012.77 1013.08 1013.31 1013.62 1013.84 1014.04 1014.49 1014.78 1015.26 1015.41
1010.38 1009.08 1007.19 1006.44 1005.72 1005.27 1005.92 1006.65 1006.57 1006.70 1006.31 1007.15 1007.25 1006.07 1005.97 1006.13 1006.62 1006.48 1006.39 1006.59 1006.80 1007.24 1007.36 1007.65 1007.97 1008.49 1008.68 1009.15 1009.80 1009.98 1010.28 1010.63 1010.93 1011.23 1011.37 1011.56 1011.75 1012.04 1012.35 1012.54 1012.91 1013.13 1013.47 1013.72 1013.86 1014.35 1014.63 1015.00 1015.34
1011.10 1009.14 1006.91 1005.90 1005.93 1005.90 1006.59 1006.68 1006.28 1007.09 1007.05 1006.89 1007.04 1006.74 1006.82 1006.72 1006.61 1006.25 1005.87 1005.82 1006.45 1007.08 1007.28 1007.74 1008.12 1008.51 1008.85 1008.76 1009.19 1010.11 1010.44 1010.61 1010.88 1011.09 1011.51 1011.81 1011.53 1011.79 1012.18 1012.32 1012.46 1013.00 1013.29 1013.45 1013.91 1014.26 1014.53 1014.88 1015.26
1010.26 1008.56 1006.84 1006.51 1006.69 1006.62 1006.54 1006.78 1006.56 1006.93 1006.50 1006.59 1006.67 1006.51 1006.71 1006.65 1006.50 1006.29 1005.91 1005.66 1005.94 1006.36 1007.01 1007.22 1007.86 1008.34 1008.71 1009.00 1009.29 1009.43 1009.58 1010.10 1010.39 1010.64 1010.87 1011.25 1011.22 1011.26 1011.38 1012.09 1012.81 1012.92 1013.18 1013.49 1013.68 1014.06 1014.41 1014.70 1014.72
1009.27 1008.13 1007.42 1007.79 1008.00 1007.47 1006.97 1006.70 1006.75 1006.44 1006.19 1006.27 1006.34 1006.42 1006.46 1006.45 1006.28 1006.24 1005.91 1005.73 1005.71 1005.92 1006.40 1006.98 1007.32 1007.67 1008.26 1008.70 1008.97 1009.41 1009.48 1009.60 1009.67 1009.85 1010.08 1010.54 1010.71 1010.84 1011.22 1011.48 1012.47 1012.74 1013.26 1013.02 1013.37 1013.80 1014.08 1013.95 1014.21
1009.16 1008.52 1008.16 1007.89 1007.88 1007.84 1007.19 1007.02 1006.45 1006.34 1006.04 1006.26 1006.37 1006.34 1006.34 1006.21 1006.08 1005.94 1005.75 1005.68 1005.74 1005.75 1005.87 1006.43 1007.05 1007.56 1007.78 1007.91 1008.67 1009.03 1009.52 1009.53 1009.92 1010.01 1010.08 1010.06 1010.48 1010.50 1010.53 1010.65 1011.33 1011.86 1011.90 1012.15 1012.28 1012.46 1013.01 1013.39 1013.72
1009.09 1008.08 1007.99 1008.05 1007.93 1007.55 1007.37 1006.84 1006.37 1006.03 1005.84 1005.92 1005.99 1006.35 1006.06 1006.06 1006.01 1005.83 1005.70 1005.76 1005.86 1005.90 1005.98 1006.06 1006.64 1007.04 1007.35 1007.62 1007.69 1008.08 1008.68 1008.94 1009.03 1009.62 1010.03 1010.26 1010.36 1010.40 1010.25 1010.54 1010.75 1011.30 1011.35 1011.76 1011.93 1012.39 1012.83 1013.17 1013.59
1008.01 1008.17 1007.80 1007.61 1007.41 1007.18 1007.08 1006.35 1006.18 1005.74 1005.62 1005.54 1005.65 1005.84 1005.81 1005.96 1006.02 1006.04 1005.89 1006.06 1006.35 1006.50 1006.38 1006.60 1006.51 1006.56 1007.03 1007.37 1007.37 1007.33 1007.64 1007.74 1008.47 1009.05 1009.48 1009.87 1010.06 1010.06 1010.33 1010.58 1010.81 1010.57 1011.12 1011.62 1011.86 1012.27 1012.52 1013.03 1013.29
1008.48 1008.01 1007.26 1006.95 1006.94 1006.45 1006.58 1005.78 1005.06 1005.31 1005.14 1005.39 1005.33 1005.34 1005.55 1005.80 1006.09 1006.29 1006.72 1006.66 1006.61 1006.67 1006.77 1006.92 1006.90 1006.79 1006.56 1006.81 1007.04 1007.27 1007.03 1007.20 1007.23 1008.08 1008.91 1009.21 1009.60 1009.69 1009.93 1010.27 1010.60 1010.61 1010.86 1011.60 1012.03 1012.28 1012.41 1013.01 1013.26
1008.08 1007.48 1006.16 1005.11 1005.83 1005.94 1006.35 1004.23 1004.53 1004.59 1004.97 1004.85 1004.93 1005.14 1005.47 1005.74 1006.47 1006.84 1007.24 1007.21 1007.07 1006.83 1006.86 1007.11 1007.11 1007.02 1006.67 1006.28 1006.33 1006.34 1006.38 1006.74 1006.69 1007.01 1007.76 1008.27 1008.79 1009.09 1009.61 1009.95 1010.24 1010.69 1010.88 1011.79 1012.34 1012.48 1012.69 1013.11 1013.26
1007.03 1005.55 1005.09 1004.83 1005.44 1005.36 1005.47 1004.08 1004.53 1004.81 1004.90 1004.85 1004.80 1004.84 1005.31 1005.87 1006.29 1007.09 1007.42 1007.49 1007.59 1007.40 1007.17 1006.78 1007.04 1006.96 1006.83 1006.30 1005.87 1005.76 1005.80 1005.96 1006.07 1006.21 1006.73 1007.05 1007.78 1008.27 1008.97 1009.35 1009.95 1010.39 1010.87 1011.38 1012.13 1012.40 1012.50 1012.91 1013.01
1005.77 1005.21 1004.90 1004.60 1004.64 1005.34 1004.73 1004.30 1004.47 1004.50 1004.25 1004.49 1004.47 1004.67 1005.48 1005.89 1006.52 1007.22 1007.42 1007.68 1007.73 1007.71 1007.66 1007.39 1006.93 1006.91 1006.75 1006.43 1005.51 1005.14 1005.00 1005.46 1005.56 1005.65 1005.86 1006.05 1006.79 1007.46 1008.41 1008.82 1009.44 1010.05 1010.64 1010.97 1011.65 1012.15 1012.40 1012.68 1012.96
1006.50 1005.53 1004.91 1004.63 1005.00 1005.46 1004.55 1004.06 1003.75 1003.83 1003.81 1003.90 1004.16 1004.94 1005.58 1006.24 1006.74 1006.95 1007.36 1007.71 1007.82 1007.73 1007.77 1007.65 1007.26 1006.92 1006.67 1006.01 1005.07 1004.16 1003.85 1004.40 1004.54 1004.43 1005.01 1005.44 1005.98 1006.69 1007.56 1008.22 1009.12 1009.69 1010.08 1010.47 1011.15 1011.94 1012.24 1012.45 1012.83
1006.90 1006.07 1005.35 1005.20 1005.31 1005.07 1004.35 1003.38 1002.90 1003.08 1003.19 1003.48 1004.12 1005.08 1005.95 1006.51 1006.77 1007.08 1007.30 1007.50 1007.80 1007.92 1007.95 1007.84 1007.46 1007.06 1006.74 1006.13 1005.36 1004.04 1003.13 1003.24 1003.77 1003.92 1004.06 1004.51 1005.59 1006.15 1006.71 1007.56 1008.34 1009.07 1009.64 1010.12 1010.61 1011.27 1011.94 1012.13 1012.61
1006.84 1006.08 1005.62 1005.33 1004.96 1004.94 1004.21 1003.04 1001.99 1002.81 1003.42 1004.08 1004.70 1005.74 1006.41 1006.89 1007.30 1007.49 1007.73 1007.94 1008.03 1007.95 1008.01 1007.99 1007.68 1007.35 1006.88 1006.29 1005.34 1004.48 1003.13 1002.57 1002.94 1003.42 1003.61 1003.95 1004.88 1005.55 1006.05 1006.90 1007.86 1008.67 1009.10 1009.64 1010.00 1010.82 1011.44 1011.67 1012.20
1006.18 1006.24 1006.08 1005.61 1005.23 1003.57 1003.74 1001.80 1001.73 1002.28 1003.33 1004.18 1005.02 1005.89 1006.60 1007.28 1007.75 1007.93 1008.07 1008.37 1008.60 1008.57 1008.65 1008.41 1007.95 1007.37 1006.83 1006.29 1005.14 1004.07 1002.79 1001.41 1001.58 1001.99 1002.55 1003.18 1003.98 1004.83 1005.45 1005.82 1006.67 1007.45 1008.44 1009.09 1009.56 1010.41 1010.90 1011.31 1011.54
1006.55 1006.29 1006.27 1005.57 1004.97 1004.32 1003.34 1002.96 1000.67 1002.22 1003.01 1003.93 1005.20 1006.26 1007.18 1007.86 1008.26 1008.30 1008.43 1008.73 1008.80 1009.03 1009.03 1008.67 1008.08 1007.49 1006.84 1006.24 1005.60 1004.34 1002.69 1001.17 1000.82 1001.25 1002.04 1002.78 1003.14 1003.71 1004.59 1004.73 1004.75 1005.20 1006.79 1007.94 1008.70 1009.50 1010.01 1010.58 1011.06
1007.35 1006.98 1006.18 1005.78 1004.87 1003.68 1002.86 1002.47 1000.69 1001.98 1002.47 1003.88 1005.64 1006.95 1007.89 1008.35 1008.52 1008.59 1008.81 1008.90 1008.83 1009.05 1009.22 1009.00 1008.04 1007.43 1006.77 1005.88 1004.98 1003.81 1002.30 1001.05 1000.01 1000.48 1001.41 1002.00 1002.42 1002.88 1003.62 1004.04 1004.67 1005.20 1005.53 1006.16 1007.51 1008.29 1009.04 1009.74 1010.39
1007.82 1006.74 1006.11 1005.58 1004.35 1002.63 1002.24 1002.24 1001.27 1002.53 1003.88 1004.72 1006.25 1007.59 1008.47 1008.86 1008.99 1008.97 1008.92 1008.91 1008.98 1009.19 1009.10 1008.80 1007.92 1007.37 1006.45 1005.34 1004.18 1002.74 1001.27 1000.40 999.59 999.95 1000.56 1001.47 1001.92 1002.34 1002.83 1003.30 1003.97 1004.27 1004.63 1005.49 1007.11 1006.83 1008.23 1008.96 1009.59
1006.00 1005.80 1005.44 1003.66 1002.70 1002.14 1003.19 1002.46 1002.73 1004.54 1005.57 1006.70 1007.63 1008.43 1009.00 1009.26 1009.46 1009.51 1009.61 1009.64 1009.60 1009.41 1009.09 1008.64 1007.61 1006.94 1005.75 1004.63 1003.22 1001.71 999.71 999.13 999.18 999.69 1000.21 1000.80 1001.22 1001.52 1002.21 1003.12 1003.33 1003.71 1003.78 1003.99 1005.79 1006.39 1007.50 1008.16 1008.88
1005.14 1004.83 1004.47 1003.96 1003.65 1003.01 1002.33 1003.38 1004.94 1005.95 1006.71 1007.50 1008.23 1008.84 1009.35 1009.68 1009.93 1010.10 1010.09 1010.15 1010.10 1009.57 1009.27 1009.07 1007.93 1007.22 1006.15 1004.38 1002.68 1000.62 998.45 998.36 998.88 999.33 999.85 1000.18 1000.12 1000.40 1001.55 1002.65 1003.43 1003.76 1005.12 1004.81 1005.71 1006.35 1006.91 1007.70 1008.38
1005.19 1004.67 1005.29 1004.86 1003.86 1002.85 1002.38 1002.49 1002.80 1005.95 1006.90 1007.78 1008.58 1009.27 1009.76 1010.15 1010.43 1010.60 1010.63 1010.80 1010.63 1010.01 1009.71 1009.40 1008.44 1007.77 1006.13 1004.43 1002.77 1000.62 998.79 998.75 998.84 999.02 999.22 999.78 999.70 1000.32 1001.17 1002.35 1003.02 1003.64 1004.63 1005.31 1005.36 1005.99 1006.74 1007.44 1007.83
1005.87 1005.51 1005.69 1005.19 1004.97 1004.07 1003.35 1003.45 1005.43 1006.50 1007.62 1008.34 1009.07 1009.85 1010.44 1010.79 1011.09 1011.32 1011.35 1011.31 1010.91 1010.43 1010.23 1009.67 1008.29 1007.59 1006.38 1005.05 1003.32 1001.54 999.53 999.07 998.96 998.83 999.19 999.79 1000.09 1000.33 1000.82 1001.56 1002.72 1003.76 1004.34 1004.92 1005.00 1005.53 1006.13 1006.66 1007.31
1007.16 1006.56 1006.34 1006.22 1005.89 1005.84 1005.71 1005.10 1006.42 1007.45 1008.50 1009.27 1009.76 1010.61 1011.22 1011.78 1012.09 1011.96 1011.91 1011.61 1011.43 1011.00 1010.72 1009.94 1009.33 1008.57 1007.61 1006.25 1004.53 1002.89 1001.26 1000.02 999.48 999.41 999.15 999.63 1000.13 1000.46 1000.97 1000.93 1002.07 1002.95 1004.11 1004.36 1004.73 1005.08 1005.55 1006.10 1006.67
Wind_Speed
8 5 4 6 8 7 11 3 2 7 6 2 4 6 8 10 4 7 12 14 2 10 15 18 13 14 13 12 13 12 12 13 14 14 14 13 13 13 14 14 14 13 15 15 15 13 13 11 11
6 5 5 3 9 11 8 4 9 4 5 2 2 6 6 3 4 12 12 15 5 8 13 18 15 16 14 13 13 13 13 13 14 15 14 14 14 14 14 14 13 12 13 14 15 13 14 10 10
5 5 5 5 9 13 9 3 1 6 3 2 2 4 1 1 8 11 17 17 6 9 14 16 18 17 16 14 13 13 13 14 14 15 16 15 15 15 14 13 12 12 13 14 15 13 10 10 10
6 6 4 9 17 12 8 3 2 4 5 3 4 6 3 6 6 12 16 11 6 9 12 14 11 16 17 15 14 14 13 12 12 13 15 15 15 15 14 12 12 13 12 12 13 11 8 9 9
5 4 8 11 18 13 8 7 8 10 5 8 6 8 7 7 8 13 14 8 4 7 9 10 3 7 13 14 14 12 11 11 12 14 15 16 16 15 14 13 13 13 13 12 11 9 9 9 10
6 5 9 14 17 13 8 9 11 12 9 10 10 9 9 3 12 13 12 9 3 7 8 9 9 6 8 11 11 10 11 10 11 12 13 14 14 14 14 14 13 13 11 11 10 10 10 9 10
13 9 14 16 18 14 11 2 9 7 4 6 1 9 6 5 13 12 10 7 3 6 9 9 12 12 5 6 9 9 9 9 10 10 11 12 11 13 14 13 12 12 11 10 10 11 12 10 11
8 8 14 10 15 18 9 9 7 10 11 5 6 6 6 12 14 11 7 6 3 6 9 10 9 8 12 11 4 7 9 9 8 8 9 9 9 10 12 12 11 11 10 11 10 10 12 12 11
5 9 13 20 12 10 3 10 5 3 8 7 7 9 11 15 14 11 8 4 3 6 9 9 9 8 7 9 10 7 7 8 8 9 7 8 11 13 14 13 13 10 11 11 9 11 12 12 10
12 12 15 12 10 11 10 11 11 8 12 12 14 12 8 9 9 10 9 8 2 6 10 11 10 8 8 6 6 11 11 11 11 11 12 11 12 11 12 11 7 10 10 10 9 10 11 13 9
10 18 16 9 13 11 14 15 13 15 16 15 14 13 11 10 11 10 10 8 6 3 6 9 12 13 12 8 7 5 4 6 7 13 13 13 10 10 10 8 9 10 10 10 10 10 10 12 10
13 16 15 14 12 15 16 15 17 15 18 15 14 14 12 11 11 10 10 9 8 6 5 8 11 11 12 9 8 8 6 7 7 8 10 8 8 11 10 9 11 10 10 12 11 8 10 12 12
18 16 13 15 14 16 16 19 19 18 16 14 12 9 12 8 8 9 8 8 6 6 6 8 9 12 12 14 11 11 11 11 11 11 12 8 10 9 9 8 9 8 10 10 10 9 10 11 11
2 12 12 10 14 16 16 17 15 12 13 10 9 9 6 6 6 7 7 9 8 9 7 7 10 11 12 12 13 12 11 12 11 10 9 12 10 10 9 8 9 11 9 7 9 9 9 9 10
13 16 16 17 17 16 12 19 20 17 13 10 9 7 5 4 6 5 6 9 11 9 9 8 7 11 13 15 13 12 11 13 12 11 13 13 12 14 11 10 10 9 8 8 9 9 9 7 8
12 14 15 5 14 12 11 13 4 4 8 11 8 6 5 4 3 4 6 8 11 13 12 11 9 10 12 14 13 12 12 12 12 11 12 18 14 15 12 11 11 9 6 8 8 8 7 7 9
16 16 16 10 12 6 15 9 7 7 8 11 11 9 4 4 2 5 7 9 10 11 14 15 12 11 11 15 13 15 16 13 12 12 12 18 16 15 12 10 11 11 7 8 8 7 8 8 9
19 19 16 14 9 12 12 13 10 17 13 11 11 6 4 3 4 5 7 8 10 11 12 14 14 13 13 11 13 12 13 12 13 13 13 17 14 15 12 9 10 10 8 8 8 9 8 7 7
10 15 14 8 7 6 15 17 16 14 14 13 10 7 3 2 5 8 10 11 12 12 13 14 16 15 12 10 11 12 13 13 15 15 20 18 15 16 15 10 10 10 10 10 10 8 9 7 7
22 19 19 15 16 11 15 16 13 15 15 8 7 8 4 2 7 10 13 14 14 14 14 15 16 16 14 11 11 13 12 13 14 13 12 15 17 16 15 12 11 12 9 11 11 13 5 5 8
21 21 16 15 5 13 13 19 14 6 7 8 7 5 3 4 7 10 13 14 15 17 17 16 17 16 16 17 12 12 15 12 11 13 12 16 17 16 16 14 10 10 9 9 12 11 12 6 7
22 16 15 12 10 11 6 4 12 9 11 10 8 6 3 5 8 10 11 13 15 15 17 17 17 18 16 17 15 17 16 16 15 15 12 12 16 16 16 16 15 13 9 10 10 10 11 10 9
18 7 14 16 13 14 14 8 6 13 10 12 9 5 5 7 10 12 13 13 14 15 16 17 17 17 18 17 16 16 18 16 13 11 13 12 14 17 18 16 19 17 14 12 12 14 15 11 8
9 6 10 10 11 14 17 12 11 13 11 11 9 5 6 9 11 12 13 13 14 14 14 16 17 17 18 17 17 19 23 23 15 14 10 10 10 12 17 16 16 14 12 15 13 14 15 13 10
21 12 7 9 9 13 2 10 4 11 6 5 6 6 8 10 12 13 16 17 16 18 19 16 17 20 19 19 18 18 24 24 19 18 10 10 10 9 15 19 15 14 17 17 15 13 15 15 12
22 19 10 11 11 10 7 8 7 11 13 10 8 6 8 10 12 15 16 16 17 18 19 19 18 20 20 19 19 19 22 14 13 12 8 10 10 12 16 17 16 14 11 12 12 10 13 15 13
15 20 17 10 4 7 8 8 8 9 8 6 6 6 8 11 13 15 17 16 18 18 20 19 18 19 19 20 18 20 15 15 9 10 8 9 13 13 15 15 11 10 8 12 14 11 13 12 10
6 7 8 8 12 15 12 9 3 8 5 5 6 6 7 10 13 15 16 17 17 17 18 17 16 18 19 20 17 17 6 10 12 10 12 12 13 12 13 13 10 8 12 14 13 12 10 10 9
5 6 4 5 5 7 11 2 4 8 5 6 8 8 10 11 13 14 14 16 17 17 18 17 18 20 21 20 19 18 7 8 9 9 10 9 11 16 15 15 10 9 9 11 10 10 14 15 10
3 2 4 5 8 4 7 6 4 6 6 7 8 8 8 10 11 12 14 16 17 18 18 18 17 18 19 19 17 15 13 12 4 7 10 12 11 12 14 16 15 11 12 9 10 13 9 12 11
Wind_Direction
197 209 243 237 244 236 254 231 340 173 163 117 298 266 322 313 312 319 345 16 258 184 167 172 163 161 155 148 141 139 146 155 155 160 161 164 165 161 162 161 165 168 165 156 162 165 174 172 164
172 179 213 260 252 241 254 174 221 139 69 336 184 263 238 102 352 314 320 0 332 194 175 178 169 164 157 152 146 141 145 147 154 159 159 161 165 164 165 161 165 172 165 160 168 173 176 164 160
178 222 230 240 247 250 290 55 353 137 87 327 258 259 278 8 360 345 340 322 264 208 188 180 170 163 157 155 154 151 149 149 151 157 158 160 165 165 166 161 163 167 167 167 174 177 163 157 158
184 188 203 242 249 243 269 32 97 177 191 250 311 255 207 93 358 346 340 328 263 199 196 140 178 163 162 159 158 161 156 150 149 149 153 159 165 166 165 160 166 170 164 173 180 176 157 156 154
211 243 235 237 254 261 256 269 261 277 272 285 283 260 259 138 3 0 350 334 274 188 203 164 180 178 161 165 166 162 159 156 156 157 157 161 167 167 163 166 169 171 171 176 181 157 161 165 158
198 278 233 244 255 240 250 266 253 259 268 254 251 273 263 163 1 355 347 333 272 206 188 188 167 200 182 168 163 160 161 168 169 163 163 164 165 162 164 170 177 172 176 177 170 163 166 168 165
251 232 256 269 273 265 256 286 234 261 256 240 10 270 282 245 349 341 343 324 258 200 188 184 189 186 179 170 160 160 162 174 178 173 166 166 160 160 168 176 184 180 183 184 176 168 162 174 180
254 262 257 248 258 264 251 239 264 253 271 21 271 254 277 329 329 318 321 328 261 199 189 185 186 186 197 190 141 160 170 181 179 175 173 169 163 170 178 176 184 188 186 187 179 165 170 179 184
247 246 247 247 252 260 205 251 149 340 260 257 258 277 301 309 315 311 309 293 249 206 184 182 182 178 195 210 179 178 186 184 180 182 172 171 196 189 187 200 172 188 183 183 180 176 176 179 184
220 238 259 279 271 259 262 243 276 269 262 260 275 272 280 288 302 319 316 322 279 217 197 184 182 181 183 189 210 210 200 207 205 201 189 207 210 202 205 193 182 176 183 183 182 181 176 180 204
213 244 269 242 260 265 267 266 266 262 270 266 279 287 293 296 298 302 301 304 321 307 210 211 192 191 197 193 199 203 221 225 212 212 206 204 208 203 201 198 200 205 195 202 193 189 207 203 210
247 235 260 250 257 253 256 268 267 270 269 278 274 280 288 282 292 296 298 316 303 299 259 207 214 204 199 196 202 206 209 204 205 211 207 212 208 211 202 202 204 210 196 213 202 201 210 211 213
239 254 250 249 247 250 266 262 265 266 270 273 269 271 277 287 284 293 318 309 328 304 289 276 214 215 212 206 199 203 211 211 213 213 212 210 209 213 212 208 211 203 208 205 199 203 200 209 214
286 249 251 247 239 243 252 254 244 247 258 255 246 255 256 280 314 308 319 331 340 339 335 325 275 230 229 224 222 212 209 213 206 215 209 209 218 211 204 200 209 209 207 191 210 193 199 210 212
257 252 243 241 244 239 248 255 245 251 262 254 221 244 262 294 313 340 352 330 336 332 334 332 303 275 242 234 232 229 224 215 208 206 209 206 214 215 204 204 209 209 208 190 201 183 196 205 206
233 239 248 184 223 224 216 261 188 221 221 227 258 250 267 307 341 23 0 342 339 334 331 326 323 304 273 245 237 230 226 223 225 205 204 210 207 212 204 207 202 192 187 179 190 180 179 195 210
219 252 219 229 206 186 213 255 257 185 210 255 262 266 300 299 116 26 356 346 340 334 328 325 322 306 300 272 248 237 231 224 221 217 210 205 203 206 203 201 206 184 181 186 188 182 177 189 210
236 228 249 235 173 226 221 241 248 273 262 249 261 279 255 278 26 8 352 347 337 332 327 318 317 314 307 289 260 242 231 220 226 221 217 211 201 194 201 198 190 181 188 184 188 192 188 192 199
287 269 249 202 220 262 253 257 254 248 251 240 245 195 189 344 344 357 360 353 342 337 325 321 314 314 308 294 274 239 232 221 224 222 219 208 205 197 196 191 185 185 189 183 183 183 183 190 177
247 250 254 264 259 244 259 254 241 248 247 245 177 161 131 334 354 358 354 351 348 339 335 323 312 314 307 293 277 276 238 232 229 233 220 209 206 196 194 185 184 188 188 185 184 189 177 188 179
237 245 252 255 208 233 263 260 235 197 163 154 137 118 129 32 359 359 354 349 342 337 336 326 317 311 305 297 281 265 262 241 219 223 216 208 202 198 185 181 176 186 188 191 181 183 183 175 182
237 220 245 251 249 253 195 264 173 173 170 182 159 161 77 29 5 358 349 345 342 338 333 328 320 313 305 302 289 264 265 234 223 222 212 202 191 185 183 176 176 180 176 180 182 185 192 191 187
248 228 233 241 249 262 235 252 161 176 179 174 162 118 69 22 6 356 351 343 334 343 332 328 322 316 311 302 285 271 254 249 235 221 210 199 187 183 188 191 160 189 169 178 183 190 205 197 193
262 239 235 240 240 243 245 228 168 187 187 143 135 98 31 10 360 355 350 343 341 341 337 327 329 321 310 304 289 263 262 251 231 218 214 193 191 181 189 190 187 186 172 170 182 190 206 201 200
215 216 210 225 216 243 166 227 202 131 116 97 106 57 21 6 359 351 351 346 344 341 338 334 336 320 316 308 292 272 264 238 232 227 201 187 192 187 191 186 188 187 182 176 192 176 202 205 204
197 203 219 214 226 230 144 229 106 91 87 89 74 35 11 3 0 356 353 349 342 340 339 340 339 325 323 312 302 290 260 222 222 219 198 199 198 205 197 205 201 208 191 159 181 178 203 204 209
191 217 243 282 270 275 199 143 114 113 109 103 63 20 11 6 2 358 353 355 342 346 342 341 340 327 320 320 315 304 239 214 205 205 196 215 207 207 202 199 186 169 218 186 185 189 195 200 204
262 164 200 218 246 240 237 240 160 139 114 72 45 23 17 8 2 0 357 352 343 350 343 339 345 331 329 329 323 311 222 206 201 195 199 190 204 189 173 173 166 174 189 198 182 187 192 196 205
168 189 232 286 283 275 271 245 84 111 79 40 32 21 12 2 2 359 354 352 352 351 349 342 351 347 340 335 333 337 291 218 206 190 170 172 169 168 165 165 153 165 186 187 185 181 195 202 209
285 292 276 255 214 262 300 292 139 113 63 8 15 16 5 1 3 358 358 358 355 356 353 355 352 348 341 333 337 343 345 351 194 197 181 177 175 171 174 165 164 153 195 184 192 196 190 195 198